Weather History for Meridian, MS

Change the Weather History Date:

Monday, December 2, 2013

  Actual Average Record
Temperature  
Mean Temperature 60 °F 50 °F  
Max Temperature 71 °F 62 °F 81 °F (1982)
Min Temperature 48 °F 38 °F 21 °F (1960)
Degree Days  
Heating Degree Days 5 15  
Month to date heating degree days 23 30  
Since 1 July heating degree days 524 480  
Cooling Degree Days 0 0  
Month to date cooling degree days 0 0  
Year to date cooling degree days 2041 2029  
Growing Degree Days 10 (Base 50)    
Moisture  
Dew Point 51 °F    
Average Humidity 74    
Maximum Humidity 100    
Minimum Humidity 47    
Precipitation  
Precipitation 0.00 in 0.19 in 3.04 in (1991)
Month to date precipitation 0.00 0.38  
Year to date precipitation 59.92 51.48  
Sea Level Pressure  
Sea Level Pressure 29.83 in    
Wind  
Wind Speed 7 mph (SSW)    
Max Wind Speed 18 mph    
Max Gust Speed 23 mph    
Visibility 10 miles    
Events      
T = Trace of Precipitation, MM = Missing Value Source: NWS Daily Summary

Daily Weather History Graph

Daily Weather History Graph

Search for Another Location

Airport:

Trip Planner

Search our weather history database for the weather conditions in past years. The results will help you decide how hot, cold, wet, or windy it might be!

Date:

Astronomy

Dec. 02, 2013 Rise Set
Actual Time 6:39 AM CST 4:49 PM CST
Civil Twilight 6:12 AM CST 5:16 PM CST
Nautical Twilight 5:42 AM CST 5:46 PM CST
Astronomical Twilight 5:12 AM CST 6:16 PM CST
Moon 6:06 AM CST (12/2) 4:50 PM CST (12/2)
Length of Visible Light 11h 03m
Length of Day
10h 10m
Waning Crescent, 0% of the Moon is Illuminated
Dec 2
Waning Crescent
Dec 2
New
Dec 9
First Quarter
Dec 17
Full
Dec 25
Last Quarter

Hourly Weather History & Observations

Time (CST) Temp. Dew Point Humidity Pressure Visibility Wind Dir Wind Speed Gust Speed Precip Events Conditions
12:58 AM 52.0 °F 48.0 °F 86% 29.99 in 10.0 mi South 6.9 mph - N/A   Overcast
1:58 AM 51.1 °F 48.0 °F 89% 29.96 in 10.0 mi SSW 6.9 mph - N/A   Overcast
2:58 AM 51.1 °F 48.0 °F 89% 29.94 in 10.0 mi SSW 6.9 mph - N/A   Overcast
3:58 AM 51.1 °F 48.0 °F 89% 29.93 in 10.0 mi Calm Calm - N/A   Overcast
4:58 AM 50.0 °F 46.9 °F 89% 29.91 in 10.0 mi SSW 5.8 mph - N/A   Mostly Cloudy
5:58 AM 50.0 °F 48.0 °F 93% 29.92 in 10.0 mi SSW 3.5 mph - N/A   Overcast
6:58 AM 50.0 °F 48.0 °F 93% 29.91 in 9.0 mi SSW 5.8 mph - N/A   Overcast
7:58 AM 52.0 °F 48.9 °F 89% 29.90 in 10.0 mi SSW 4.6 mph - 0.00 in   Overcast
8:58 AM 54.0 °F 50.0 °F 86% 29.91 in 10.0 mi South 5.8 mph - 0.00 in   Overcast
9:58 AM 62.1 °F 50.0 °F 65% 29.89 in 10.0 mi SSW 10.4 mph - N/A   Partly Cloudy
11:58 AM 69.1 °F 48.9 °F 49% 29.82 in 10.0 mi SW 10.4 mph - N/A   Unknown
12:10 PM 69.8 °F 50.0 °F 49% 29.81 in 10.0 mi WSW 13.8 mph - N/A   Partly Cloudy
12:58 PM 68.0 °F 53.1 °F 59% 29.79 in 10.0 mi SSW 13.8 mph 21.9 mph N/A   Scattered Clouds
1:58 PM 69.1 °F 53.1 °F 57% 29.76 in 10.0 mi SSW 12.7 mph - N/A   Overcast
2:58 PM 69.1 °F 54.0 °F 58% 29.75 in 10.0 mi SSW 8.1 mph - N/A   Mostly Cloudy
3:58 PM 68.0 °F 54.0 °F 61% 29.75 in 10.0 mi South 9.2 mph - N/A   Mostly Cloudy
4:58 PM 66.0 °F 54.0 °F 65% 29.75 in 10.0 mi South 9.2 mph - N/A   Mostly Cloudy
5:58 PM 61.0 °F 54.0 °F 78% 29.75 in 10.0 mi South 6.9 mph - N/A   Scattered Clouds
6:58 PM 57.0 °F 53.1 °F 87% 29.75 in 10.0 mi SSW 3.5 mph - N/A   Scattered Clouds
7:58 PM 55.9 °F 53.1 °F 90% 29.77 in 10.0 mi SSW 4.6 mph - N/A   Mostly Cloudy
8:58 PM 55.0 °F 53.1 °F 93% 29.78 in 10.0 mi SSW 8.1 mph - N/A   Scattered Clouds
9:58 PM 55.9 °F 54.0 °F 93% 29.79 in 10.0 mi SSW 8.1 mph - N/A   Scattered Clouds
10:58 PM 55.9 °F 55.0 °F 97% 29.78 in 9.0 mi SSW 8.1 mph - N/A   Clear
11:52 PM 55.4 °F 55.4 °F 100% 29.78 in 7.0 mi SSW 5.8 mph - N/A   Mostly Cloudy
11:58 PM 55.9 °F 55.0 °F 97% 29.78 in 7.0 mi SSW 4.6 mph - N/A   Mostly Cloudy